CST,Max TemperatureF,Mean TemperatureF,Min TemperatureF,Max Dew PointF,MeanDew PointF,Min DewpointF,Max Humidity, Mean Humidity, Min Humidity, Max Sea Level PressureIn, Mean Sea Level PressureIn, Min Sea Level PressureIn, Max VisibilityMiles, Mean VisibilityMiles, Min VisibilityMiles, Max Wind SpeedMPH, Mean Wind SpeedMPH, Max Gust SpeedMPH,PrecipitationIn, CloudCover, Events, WindDirDegrees
2013-11-1,53,46,39,37,35,32,93,75,44,29.85,29.64,29.46,10,10,7,16,9,24,0.00,5,,298
2013-11-2,50,39,28,37,33,28,100,79,47,30.09,30.02,29.86,10,10,7,15,8,20,0.00,3,,316
2013-11-3,53,42,32,32,31,27,100,64,35,30.11,29.99,29.84,10,10,10,32,13,46,0.00,0,,146
2013-11-4,50,38,26,43,35,27,100,76,57,30.16,29.95,29.85,10,9,0,23,15,33,0.01,4,Fog-Rain,178
2013-11-5,42,32,23,37,32,21,100,91,70,30.19,30.05,29.87,10,6,0,23,5,30,0.83,6,Fog-Rain,25
2013-11-6,41,34,28,34,27,19,100,78,42,30.20,30.09,29.90,10,10,2,22,14,32,0.00,3,Snow,314
2013-11-7,41,36,30,32,28,23,100,83,53,30.27,30.23,30.18,10,9,3,16,6,23,0.00,4,,273
2013-11-8,50,36,21,37,28,19,100,70,37,30.22,29.94,29.71,10,10,10,31,8,39,0.01,2,Rain,158
2013-11-9,50,41,32,37,33,27,87,71,50,30.26,29.99,29.73,10,10,10,23,12,32,0.00,4,,284
2013-11-10,41,34,28,30,28,25,93,78,65,30.36,30.26,30.10,10,10,10,15,8,20,0.00,5,,232
2013-11-11,41,28,15,32,19,9,93,74,59,30.68,30.38,30.08,10,9,0,23,12,30,0.00,4,Snow,338
2013-11-12,26,17,8,12,9,3,86,73,51,30.79,30.68,30.49,10,10,10,10,6,,0.00,0,,267
2013-11-13,50,36,21,30,21,10,70,60,43,30.48,30.17,29.94,10,10,10,21,11,28,0.00,0,,203
2013-11-14,48,39,28,34,29,23,100,73,57,29.94,29.87,29.82,10,10,3,10,6,17,0.00,2,,214
2013-11-15,55,39,23,37,31,23,100,78,47,29.87,29.80,29.67,10,8,0,13,3,,0.00,0,Fog,161
2013-11-16,60,48,35,54,41,32,100,83,59,29.66,29.43,29.24,10,8,2,21,13,29,0.00,4,Rain,173
2013-11-17,44,38,33,41,34,32,100,82,66,29.89,29.54,29.33,10,9,4,24,8,31,0.25,4,Rain,293
2013-11-18,39,31,23,32,26,21,100,78,56,30.25,30.12,29.90,10,9,3,20,12,28,0.00,3,,310
2013-11-19,46,34,21,32,28,21,100,72,53,30.24,30.09,29.94,10,10,7,25,11,31,0.00,2,,142
2013-11-20,42,40,37,36,31,25,93,73,53,30.00,29.93,29.88,10,8,2,22,16,30,0.00,8,,148
2013-11-21,37,30,24,36,26,21,100,89,80,30.45,30.22,30.01,10,6,0,21,10,26,0.00,8,Fog-Snow,338
2013-11-22,32,22,12,19,12,7,86,69,35,30.59,30.52,30.46,10,10,2,24,13,31,0.00,1,Snow,302
2013-11-23,19,10,1,9,2,-2,85,69,49,30.80,30.72,30.56,10,10,10,20,13,26,0.00,0,,329
2013-11-24,28,14,1,12,6,-4,85,64,40,30.69,30.41,30.10,10,10,10,21,8,29,0.00,1,,188
2013-11-25,42,33,24,27,21,12,74,64,46,30.10,30.04,30.00,10,10,10,20,14,26,0.00,5,,263
2013-11-26,32,23,14,23,10,3,69,55,40,30.33,30.21,30.08,10,10,10,26,17,36,0.00,5,,329
2013-11-27,26,16,5,12,7,1,85,67,40,30.34,30.21,30.02,10,10,10,15,7,22,0.00,0,,169
2013-11-28,32,21,10,14,11,5,92,71,47,30.48,30.26,30.01,10,10,7,17,6,23,0.00,1,,322
2013-11-29,33,20,6,23,14,3,86,72,51,30.48,30.35,30.13,10,10,7,18,6,25,0.00,0,,156
2013-11-30,44,34,23,27,24,21,93,69,49,30.13,30.06,30.01,10,10,5,10,7,17,0.00,0,,277